Regional Weather Roundup
Issued by NWS Newport/Morehead, NC

Home | Current Version | Previous Version | Text Only | Print | Product List | Glossary On
Versions: 1 2 3 4 5 6 7 8 9 10 11 12 13 14 15 16 17 18 19 20 21 22 23 24 25 26 27 28 29 30 31 32 33 34 35 36 37 38 39 40 41 42 43 44 45 46 47 48 49 50
000
ASUS42 KMHX 220425
RWRMHX
WEATHER ROUNDUP FOR EASTERN NORTH CAROLINA
NATIONAL WEATHER SERVICE NEWPORT/MOREHEAD CITY NC
1200 AM EDT FRI SEP 22 2017

NOTE: "FAIR" INDICATES FEW OR NO CLOUDS BELOW 12,000 FEET
WITH NO SIGNIFICANT WEATHER AND/OR OBSTRUCTIONS TO VISIBILITY

NCZ015>017-031-032-045>047-102-103-220500-
NORTH COAST

CITY           SKY/WX    TMP DP  RH WIND       PRES   REMARKS
EDENTON        CLEAR     71  68  89 CALM      30.06S
ELIZABETH CITY CLEAR     71  69  93 SE3       30.06S
KITTY HAWK     CLEAR     70  64  81 CALM      30.04S
MANTEO         CLEAR     68  66  91 CALM      30.06S

$$

NCZ045>047-081-094-103-104-220500-
CENTRAL COAST

CITY           SKY/WX    TMP DP  RH WIND       PRES   REMARKS
FRISCO         CLEAR     69  67  93 NE3       30.05S

$$

NCZ095-097-098-100-101-220500-
SOUTHERN COAST

CITY           SKY/WX    TMP DP  RH WIND       PRES   REMARKS
BEAUFORT       PTCLDY    70  70 100 CALM      30.04F
CEDAR ISLAND   NOT AVBL
JACKSONVILLE   CLEAR     69  69 100 CALM      30.03F
PINEY ISLAND     N/A    N/A N/A N/A E6        30.04S
WILMINGTON     CLOUDY    69  68  96 CALM      30.04S


$$

NCZ011>013-027>030-043-044-078>080-089-090>093-098-220500-
COASTAL PLAIN

CITY           SKY/WX    TMP DP  RH WIND       PRES   REMARKS
AHOSKIE        CLEAR     67  67 100 CALM      30.06S
CLINTON        CLEAR     67  67 100 CALM      30.05F
ELIZABETHTOWN  NOT AVBL
GOLDSBORO      CLEAR     68  68 100 CALM      30.03S
GREENVILLE     CLEAR     68  68 100 CALM      30.06S FOG
HAVELOCK       CLEAR     69  68  96 CALM      30.06
KENANSVILLE    CLEAR     64  64 100 CALM      30.06R FOG
KINSTON        CLEAR     67  67  99 CALM      30.05S FOG
NEW BERN       PTCLDY    68  68 100 CALM      30.06S FOG
RICHLANDS      PTCLDY    66  66 100 CALM      30.04F FOG
ROCKY MOUNT    CLEAR     67  67 100 N3        30.06R FOG
WASHINGTON     CLEAR     71  69  96 CALM      30.05S
WHITEVILLE     CLEAR     67  66  97 CALM      30.04S FOG

$$

AMZ130-135-150-152-154-156-158-170-250-252-270-ANZ085-086-088-633-658-670-220500-
MARINE OBSERVATIONS

STATION/POSITION TIME  TEMP    WIND        PRES    WAVE   SWELL
                       AIR SEA DIR/SP/G            HT/PER HT/PER
                 (UTC) (F)     (DEG/KT/KT) (MB)    (FT/S) (FT/S)
CHESAPEAKE LIGHT NOT AVBL
64 E VA BEACH    0350   69 69  280/  4/  4 1017.7    7/10   7/10
DUCK             0400   73 75   80/  7/  9 1017.3
2 E DUCK         0400      76                N/A     4/10   2/11
OREGON INLET     0400   72 78   50/  6/  7 1017.4
13E OREGON INLT  0348      74                N/A     5/12   5/12
HATTERAS CG      0400   74 78  110/  3/  4 1017.4
DIAMOND BUOY     0350   75 75   50/  4/  6 1017.3    5/10   5/10
CAPE LOOKOUT     0400   77      70/  9/ 11 1017.2
BEAUFORT LAB     0400   74 76   30/  3/  4 1016.8
30 SE NEW RVR IN 0408   78      50/  8/ 12 1017.0
30 SE NEW RVR IN NOT AVBL
27 SE WRIGHTSVLE 0408   78 80   40/  8/ 12 1016.9
5 SE WRIGHTSVLE  0408   74 78   20/  8/ 12 1016.6
225 S CAPE HAT   0350   78 81  160/  2/  4 1016.9    5/11   5/11
41 SE CHARLESTON 0410   80 82  120/  4/  6 1016.1

$$




USA.gov is the U.S. government's official web portal to all federal, state and local government web resources and services.